| time (UTC) | temp F | wind direction | speed MPH | gust MPH | rain 1hr in | rain 24hr in | rain mn in | humidity % | barometer mb |
| 20260507001208 | 56 | 253 | 2.0 | 4.0 | 2.02 | 2.35 | 7.21 | 92 | 1015.7 |
| 20260507000208 | 56 | 242 | 2.0 | 4.0 | 1.65 | 1.81 | 1.84 | 91 | 1015.9 |
| 20260506235208 | 55 | 256 | 3.0 | 5.0 | 1.33 | 1.39 | 1.39 | 92 | 1015.8 |
| 20260506234208 | 55 | 250 | 3.0 | 5.0 | 1.05 | 1.09 | 1.09 | 92 | 1015.8 |
| 20260506233208 | 55 | 252 | 2.0 | 4.0 | 8.04 | 8.27 | 8.27 | 93 | 1015.7 |
| 20260506232208 | 55 | 260 | 2.0 | 4.0 | 5.73 | 5.81 | 5.81 | 93 | 1015.6 |
| 20260506231108 | 54 | 260 | 2.0 | 4.0 | 3.29 | 3.29 | 3.29 | 92 | 1015.5 |
| 20260506230008 | 55 | 250 | 2.0 | 3.0 | 1.34 | 1.34 | 1.34 | 90 | 1015.6 |
| 20260506225008 | 56 | 267 | 2.0 | 4.0 | 0.54 | 0.54 | 0.54 | 86 | 1015.7 |
| 20260506224008 | 56 | 248 | 2.0 | 3.0 | 0.33 | 0.33 | 0.33 | 84 | 1015.7 |
| 20260506223008 | 57 | 241 | 2.0 | 3.0 | 0.20 | 0.20 | 0.20 | 82 | 1015.8 |
| 20260506222008 | 57 | 209 | 2.0 | 3.0 | 0.06 | 0.06 | 0.06 | 81 | 1016.2 |
| 20260506221008 | 57 | 238 | 2.0 | 3.0 | 0.00 | 0.00 | 0.00 | 81 | 1016.3 |
| 20260506220008 | 57 | 248 | 2.0 | 3.0 | 0.00 | 0.00 | 0.00 | 82 | 1016.2 |
| 20260506215008 | 57 | 244 | 3.0 | 4.0 | 0.00 | 0.00 | 0.00 | 81 | 1016.2 |
| 20260506214008 | 57 | 265 | 2.0 | 4.0 | 0.00 | 0.00 | 0.00 | 81 | 1016.3 |
| 20260506213008 | 57 | 252 | 3.0 | 4.0 | 0.00 | 0.00 | 0.00 | 80 | 1016.3 |
| 20260506212008 | 57 | 264 | 2.0 | 4.0 | 0.00 | 0.00 | 0.00 | 80 | 1016.4 |
| 20260506211008 | 57 | 279 | 2.0 | 4.0 | 0.00 | 0.00 | 0.00 | 80 | 1016.4 |
| 20260506210008 | 57 | 271 | 3.0 | 5.0 | 0.00 | 0.00 | 0.00 | 79 | 1016.5 |
| 20260506205008 | 58 | 284 | 4.0 | 6.0 | 0.00 | 0.00 | 0.00 | 76 | 1016.7 |
| 20260506203008 | 58 | 255 | 4.0 | 7.0 | 0.00 | 0.00 | 0.00 | 73 | 1016.4 |
| 20260506202008 | 58 | 268 | 3.0 | 5.0 | 0.00 | 0.00 | 0.00 | 71 | 1016.3 |
| 20260506201008 | 59 | 220 | 3.0 | 5.0 | 0.00 | 0.00 | 0.00 | 68 | 1016.3 |
| 20260506200008 | 60 | 274 | 3.0 | 5.0 | 0.00 | 0.00 | 0.00 | 64 | 1016.3 |
| 20260506195008 | 60 | 265 | 3.0 | 5.0 | 0.00 | 0.00 | 0.00 | 62 | 1016.1 |
| 20260506194008 | 60 | 254 | 3.0 | 5.0 | 0.00 | 0.00 | 0.00 | 62 | 1016.0 |
| 20260506193008 | 60 | 271 | 3.0 | 5.0 | 0.00 | 0.00 | 0.00 | 61 | 1015.8 |
| 20260506192008 | 60 | 261 | 3.0 | 5.0 | 0.00 | 0.00 | 0.00 | 60 | 1015.6 |
| 20260506191008 | 61 | 272 | 3.0 | 4.0 | 0.00 | 0.00 | 0.00 | 61 | 1015.5 |
| 20260506190008 | 60 | 261 | 3.0 | 4.0 | 0.00 | 0.00 | 0.00 | 63 | 1015.4 |
| 20260506185008 | 60 | 262 | 3.0 | 5.0 | 0.00 | 0.00 | 0.00 | 64 | 1015.3 |
| 20260506184008 | 61 | 259 | 3.0 | 5.0 | 0.00 | 0.00 | 0.00 | 64 | 1015.3 |
| 20260506183008 | 62 | 268 | 3.0 | 5.0 | 0.00 | 0.00 | 0.00 | 64 | 1015.4 |
| 20260506182008 | 62 | 260 | 4.0 | 6.0 | 0.00 | 0.00 | 0.00 | 64 | 1015.5 |
| 20260506181008 | 62 | 263 | 4.0 | 6.0 | 0.00 | 0.00 | 0.00 | 64 | 1015.5 |
| 20260506180008 | 63 | 248 | 4.0 | 6.0 | 0.00 | 0.00 | 0.00 | 63 | 1015.5 |
| 20260506175008 | 63 | 253 | 3.0 | 5.0 | 0.00 | 0.00 | 0.00 | 62 | 1015.6 |
| 20260506174008 | 63 | 250 | 3.0 | 5.0 | 0.00 | 0.00 | 0.00 | 62 | 1015.6 |
| 20260506173008 | 64 | 262 | 3.0 | 6.0 | 0.00 | 0.00 | 0.00 | 61 | 1015.7 |
| 20260506172008 | 64 | 271 | 3.0 | 6.0 | 0.00 | 0.00 | 0.00 | 60 | 1015.7 |
| 20260506171008 | 64 | 263 | 3.0 | 5.0 | 0.00 | 0.00 | 0.00 | 61 | 1015.6 |
| 20260506170008 | 65 | 257 | 4.0 | 6.0 | 0.00 | 0.00 | 0.00 | 61 | 1015.7 |
| 20260506165008 | 65 | 258 | 5.0 | 6.0 | 0.00 | 0.00 | 0.00 | 60 | 1015.8 |
| 20260506164008 | 66 | 251 | 5.0 | 6.0 | 0.00 | 0.00 | 0.00 | 60 | 1015.8 |
| 20260506163008 | 66 | 254 | 5.0 | 6.0 | 0.00 | 0.00 | 0.00 | 60 | 1015.9 |
| 20260506162008 | 67 | 209 | 5.0 | 7.0 | 0.00 | 0.00 | 0.00 | 59 | 1016.0 |
| 20260506161008 | 67 | 209 | 5.0 | 7.0 | 0.00 | 0.00 | 0.00 | 58 | 1015.9 |
| 20260506160008 | 67 | 274 | 5.0 | 6.0 | 0.00 | 0.00 | 0.00 | 58 | 1015.9 |
| 20260506155008 | 67 | 242 | 4.0 | 6.0 | 0.00 | 0.00 | 0.00 | 58 | 1015.9 |
| 20260506154008 | 68 | 230 | 4.0 | 6.0 | 0.00 | 0.00 | 0.00 | 56 | 1015.9 |
| 20260506153008 | 68 | 287 | 4.0 | 5.0 | 0.00 | 0.00 | 0.00 | 54 | 1016.0 |
| 20260506152008 | 68 | 262 | 4.0 | 5.0 | 0.00 | 0.00 | 0.00 | 53 | 1016.0 |
| 20260506151008 | 69 | 276 | 4.0 | 5.0 | 0.00 | 0.00 | 0.00 | 52 | 1016.1 |
| 20260506150008 | 69 | 277 | 4.0 | 5.0 | 0.00 | 0.00 | 0.00 | 52 | 1016.2 |
| 20260506145008 | 69 | 282 | 4.0 | 5.0 | 0.00 | 0.00 | 0.00 | 52 | 1016.3 |
| 20260506144008 | 69 | 269 | 4.0 | 5.0 | 0.00 | 0.00 | 0.00 | 52 | 1016.3 |
| 20260506143008 | 69 | 265 | 4.0 | 6.0 | 0.00 | 0.00 | 0.00 | 51 | 1016.3 |
| 20260506142008 | 70 | 255 | 5.0 | 7.0 | 0.00 | 0.00 | 0.00 | 50 | 1016.4 |
| 20260506141008 | 71 | 198 | 5.0 | 7.0 | 0.00 | 0.00 | 0.00 | 49 | 1016.5 |
| 20260506140008 | 71 | 278 | 6.0 | 7.0 | 0.00 | 0.00 | 0.00 | 49 | 1016.5 |
| 20260506135008 | 70 | 266 | 5.0 | 7.0 | 0.00 | 0.00 | 0.00 | 48 | 1016.5 |
| 20260506134008 | 71 | 254 | 5.0 | 6.0 | 0.00 | 0.00 | 0.00 | 47 | 1016.5 |
| 20260506133008 | 70 | 268 | 5.0 | 6.0 | 0.00 | 0.00 | 0.00 | 47 | 1016.5 |
| 20260506132008 | 70 | 245 | 5.0 | 7.0 | 0.00 | 0.00 | 0.00 | 47 | 1016.5 |
| 20260506131008 | 70 | 209 | 5.0 | 7.0 | 0.00 | 0.00 | 0.00 | 48 | 1016.6 |
| 20260506130008 | 71 | 194 | 5.0 | 7.0 | 0.00 | 0.00 | 0.00 | 47 | 1016.7 |
| 20260506125008 | 71 | 152 | 6.0 | 8.0 | 0.00 | 0.00 | 0.00 | 46 | 1016.8 |
| 20260506124008 | 71 | 211 | 5.0 | 6.0 | 0.00 | 0.00 | 0.00 | 48 | 1016.9 |
| 20260506123008 | 71 | 190 | 4.0 | 5.0 | 0.00 | 0.00 | 0.00 | 49 | 1016.8 |
| 20260506122008 | 71 | 242 | 4.0 | 6.0 | 0.00 | 0.00 | 0.00 | 49 | 1016.9 |
| 20260506121008 | 71 | 189 | 5.0 | 6.0 | 0.00 | 0.00 | 0.00 | 50 | 1017.0 |
| 20260506120008 | 71 | 248 | 5.0 | 6.0 | 0.00 | 0.00 | 0.00 | 49 | 1017.0 |
| 20260506115008 | 71 | 235 | 5.0 | 6.0 | 0.00 | 0.00 | 0.00 | 48 | 1017.1 |
| 20260506114008 | 71 | 193 | 4.0 | 5.0 | 0.00 | 0.00 | 0.00 | 50 | 1017.0 |
| 20260506113008 | 70 | 211 | 3.0 | 3.0 | 0.00 | 0.00 | 0.00 | 52 | 1017.0 |
| 20260506112008 | 70 | 256 | 2.0 | 2.0 | 0.00 | 0.00 | 0.00 | 54 | 1016.9 |
| 20260506111008 | 69 | 169 | 3.0 | 3.0 | 0.00 | 0.00 | 0.00 | 55 | 1016.9 |
| 20260506110008 | 69 | 212 | 4.0 | 4.0 | 0.00 | 0.00 | 0.00 | 56 | 1016.9 |
| 20260506105008 | 69 | 251 | 3.0 | 4.0 | 0.00 | 0.00 | 0.00 | 56 | 1016.8 |
| 20260506104008 | 68 | 256 | 3.0 | 4.0 | 0.00 | 0.00 | 0.00 | 58 | 1016.8 |
| 20260506103008 | 68 | 204 | 3.0 | 4.0 | 0.00 | 0.00 | 0.00 | 59 | 1016.9 |
| 20260506102008 | 68 | 209 | 3.0 | 4.0 | 0.00 | 0.00 | 0.00 | 59 | 1017.0 |
| 20260506101008 | 68 | 268 | 3.0 | 3.0 | 0.00 | 0.00 | 0.00 | 59 | 1017.1 |
| 20260506100008 | 68 | 277 | 2.0 | 2.0 | 0.00 | 0.00 | 0.00 | 59 | 1017.2 |
| 20260506095008 | 67 | 282 | 2.0 | 3.0 | 0.00 | 0.00 | 0.00 | 60 | 1017.1 |
| 20260506094008 | 67 | 222 | 2.0 | 3.0 | 0.00 | 0.00 | 0.00 | 61 | 1017.0 |
| 20260506093008 | 66 | 228 | 2.0 | 3.0 | 0.00 | 0.00 | 0.00 | 63 | 1017.0 |
| 20260506092008 | 65 | 218 | 2.0 | 3.0 | 0.00 | 0.00 | 0.00 | 64 | 1017.1 |
| 20260506091008 | 65 | 209 | 1.0 | 2.0 | 0.00 | 0.00 | 0.00 | 66 | 1017.0 |
| 20260506090008 | 64 | 277 | 1.0 | 2.0 | 0.00 | 0.00 | 0.00 | 67 | 1016.9 |
| 20260506085008 | 64 | 270 | 2.0 | 3.0 | 0.00 | 0.00 | 0.00 | 67 | 1016.9 |
| 20260506084008 | 64 | 250 | 2.0 | 3.0 | 0.00 | 0.00 | 0.00 | 68 | 1016.8 |
| 20260506083008 | 63 | 254 | 1.0 | 2.0 | 0.00 | 0.00 | 0.00 | 69 | 1016.6 |
| 20260506082009 | 62 | 264 | 2.0 | 3.0 | 0.00 | 0.00 | 0.00 | 70 | 1016.5 |
| 20260506081008 | 62 | 267 | 2.0 | 3.0 | 0.00 | 0.00 | 0.00 | 72 | 1016.4 |
| 20260506073008 | 62 | 278 | 1.0 | 1.0 | 0.00 | 0.00 | 0.00 | 73 | 1016.2 |
| 20260506072008 | 61 | 234 | 1.0 | 2.0 | 0.00 | 0.00 | 0.00 | 74 | 1016.1 |
| 20260506071008 | 61 | 184 | 1.0 | 2.0 | 0.00 | 0.00 | 0.00 | 74 | 1016.1 |
| 20260506062008 | 59 | 295 | 1.0 | 2.0 | 0.00 | 0.00 | 0.00 | 79 | 1015.8 |
| 20260506061008 | 59 | 289 | 1.0 | 1.0 | 0.00 | 0.00 | 0.00 | 79 | 1015.7 |
| 20260506051008 | 57 | 269 | 1.0 | 2.0 | 0.00 | 0.00 | 0.00 | 81 | 1015.1 |
| 20260506045008 | 57 | 264 | 0.0 | 1.0 | 0.00 | 0.00 | 0.00 | 81 | 1015.2 |
| 20260506044008 | 57 | 265 | 1.0 | 1.0 | 0.00 | 0.00 | 0.00 | 81 | 1015.1 |
| 20260506043008 | 56 | 276 | 1.0 | 1.0 | 0.00 | 0.00 | 0.00 | 81 | 1015.0 |
| 20260506042008 | 57 | 276 | 1.0 | 1.0 | 0.00 | 0.00 | 0.00 | 80 | 1015.0 |
| 20260506041008 | 57 | 280 | 1.0 | 1.0 | 0.00 | 0.00 | 0.00 | 79 | 1015.0 |
| 20260506040008 | 57 | 268 | 1.0 | 1.0 | 0.00 | 0.00 | 0.00 | 80 | 1014.9 |
| 20260506035008 | 57 | 283 | 1.0 | 2.0 | 0.00 | 0.00 | 0.00 | 81 | 1014.8 |
| 20260506034008 | 56 | 266 | 1.0 | 2.0 | 0.00 | 0.00 | 0.00 | 82 | 1014.8 |
| 20260506033008 | 57 | 275 | 1.0 | 2.0 | 0.00 | 0.00 | 0.00 | 80 | 1014.9 |
| 20260506032008 | 57 | 269 | 1.0 | 2.0 | 0.00 | 0.00 | 0.00 | 79 | 1014.9 |
| 20260506031008 | 57 | 273 | 2.0 | 3.0 | 0.00 | 0.00 | 0.00 | 78 | 1015.0 |
| 20260506030008 | 57 | 257 | 2.0 | 3.0 | 0.00 | 0.00 | 0.00 | 78 | 1015.0 |
| 20260506025008 | 57 | 256 | 2.0 | 2.0 | 0.00 | 0.00 | 0.00 | 78 | 1015.1 |
| 20260506024008 | 57 | 277 | 2.0 | 3.0 | 0.00 | 0.00 | 0.00 | 78 | 1015.1 |
| 20260506023008 | 57 | 258 | 2.0 | 3.0 | 0.00 | 0.00 | 0.00 | 77 | 1015.2 |
| 20260506022008 | 58 | 257 | 2.0 | 3.0 | 0.00 | 0.00 | 0.00 | 77 | 1015.3 |
| 20260506021008 | 57 | 264 | 1.0 | 2.0 | 0.00 | 0.00 | 0.00 | 77 | 1015.4 |
| 20260506020008 | 57 | 275 | 1.0 | 2.0 | 0.00 | 0.00 | 0.00 | 77 | 1015.5 |
| 20260506015008 | 57 | 270 | 1.0 | 2.0 | 0.00 | 0.00 | 0.00 | 77 | 1015.5 |
| 20260506014008 | 57 | 283 | 1.0 | 2.0 | 0.00 | 0.00 | 0.00 | 76 | 1015.4 |
| 20260506013008 | 57 | 262 | 1.0 | 2.0 | 0.00 | 0.00 | 0.00 | 75 | 1015.4 |
| 20260506012008 | 58 | 270 | 1.0 | 2.0 | 0.00 | 0.00 | 0.00 | 74 | 1015.5 |
| 20260506011008 | 58 | 271 | 1.0 | 2.0 | 0.00 | 0.00 | 0.00 | 73 | 1015.4 |
| 20260506010008 | 58 | 266 | 1.0 | 2.0 | 0.00 | 0.00 | 0.00 | 73 | 1015.4 |
| 20260506005008 | 58 | 274 | 1.0 | 1.0 | 0.00 | 0.00 | 0.00 | 73 | 1015.5 |
| 20260506004008 | 58 | 274 | 1.0 | 1.0 | 0.00 | 0.00 | 0.00 | 75 | 1015.6 |
| 20260506003008 | 57 | 270 | 1.0 | 1.0 | 0.00 | 0.00 | 0.00 | 76 | 1015.6 |
| 20260506002008 | 57 | 280 | 1.0 | 1.0 | 0.00 | 0.00 | 0.00 | 76 | 1015.7 |